Regional Weather Roundup
Issued by NWS

Home | Current Version | Previous Version | Graphics & Text | Print | Product List | Glossary On
Versions: 1 2 3 4 5 6 7 8 9 10 11 12 13 14 15 16 17 18 19 20 21 22 23 24 25 26 27 28 29 30 31 32 33 34 35 36 37 38 39 40 41 42 43 44 45 46 47 48 49 50
000
ASUS43 KLMK 282202
RWRKY
KENTUCKY REGIONAL WEATHER ROUNDUP
NATIONAL WEATHER SERVICE LOUISVILLE KY
500 PM EST FRI NOV 28 2014

NOTE "FAIR" INDICATES FEW OR NO CLOUDS BELOW 12,000 FEET
WITH NO SIGNIFICANT WEATHER AND/OR OBSTRUCTIONS TO VISIBILITY.

KYZ001>023-026-027-061>063-070>075-282300-
WESTERN AND SOUTH CENTRAL KENTUCKY

CITY           SKY/WX    TMP DP  RH WIND       PRES   REMARKS
PADUCAH        CLEAR     48  27  44 S10       30.11F
HENDERSON      CLEAR     43  27  52 S12       30.12F
OWENSBORO      CLEAR     42  27  55 S14       30.15F
HOPKINSVILLE   CLEAR     47  23  39 S10       30.17F
BOWLING GREEN  CLEAR     44  20  38 S10       30.21F
GLASGOW        NOT AVBL
$$

KYZ024-025-028>034-038-045-046-053-282300-
NORTH CENTRAL KENTUCKY

CITY           SKY/WX    TMP DP  RH WIND       PRES   REMARKS
LOUISVILLE/SDF PTCLDY    39  21  48 S13       30.19F WCI  31
LOUISVILLE/LOU PTCLDY    38  20  48 SE7       30.20F WCI  33
FORT KNOX      CLEAR     37  23  56 SE12      30.16F WCI  30
$$

KYZ035>037-039>044-047>052-055>060-089>105-282300-
NORTHEAST KENTUCKY

CITY           SKY/WX    TMP DP  RH WIND       PRES   REMARKS
LEXINGTON      CLEAR     35  18  49 S10       30.22F WCI  27
COVINGTON      CLOUDY    34  15  46 S13       30.20F WCI  25
FRANKFORT      CLEAR     36  18  48 S8        30.20F WCI  30
$$

KYZ054-064>069-076>088-106>120-282300-
SOUTHEAST KENTUCKY

CITY           SKY/WX    TMP DP  RH WIND       PRES   REMARKS
JACKSON        CLOUDY    34  16  47 CALM      30.24F
LONDON         CLEAR     38  17  42 S5        30.24F WCI  34
SOMERSET       NOT AVBL
MIDDLESBORO    NOT AVBL
MONTICELLO     CLEAR     42  18  38 SE7       30.25F
$$



USA.gov is the U.S. government's official web portal to all federal, state and local government web resources and services.